Location: Arborea
(39.7744°N, 8.5819°E)
Time: 11:59:56
(UTC+00:00)

Cosmos 1953 - Pass Details

Date: 01 June 2022
Orbit: 533 x 555 km, 82.5° (Epoch: 30 June)

Event Time Altitude Azimuth Distance (km) Brightness Sun altitude
Rises 23:04:21 0° 355° (N) 2,711 7.1 -27.9°
Reaches altitude 10° 23:06:33 10° 359° (N) 1,810 5.9 -27.9°
Enters shadow 23:09:05 36° 14° (NNE) 859 3.7 -28.0°
